Regional Weather Roundup
Issued by NWS

Home | Current Version | Previous Version | Graphics & Text | Print | Product List | Glossary On
Versions: 1 2 3 4 5 6 7 8 9 10 11 12 13 14 15 16 17 18 19 20 21 22 23 24 25 26 27 28 29 30 31 32 33 34 35 36 37 38 39 40 41 42 43 44 45 46 47 48 49 50
000
ASUS43 KDTX 051710
RWRMI
MICHIGAN HOURLY REGIONAL WEATHER ROUNDUP
NATIONAL WEATHER SERVICE DETROIT/PONTIAC MI
1200 PM EST MON DEC 05 2016

NOTE: "FAIR" INDICATES FEW OR NO CLOUDS BELOW 12,000 FEET WITH NO
SIGNIFICANT WEATHER AND/OR OBSTRUCTION TO VISIBILITY.

MIZ047>049-052>055-059>063-066>070-074>076-081>083-051800-
SOUTHEAST LOWER MICHIGAN

CITY           SKY/WX    TMP DP  RH WIND       PRES   REMARKS
ADRIAN         CLOUDY    36  33  89 SW10      30.07S WCI  28
ALMA           PTSUNNY   37  32  82 SW12      29.99S WCI  29
ANN ARBOR      CLOUDY    38  33  82 S9        30.05R WCI  31
BAD AXE        MOSUNNY   38  33  85 SW12G18   29.95F WCI  30
CARO           SUNNY     38  33  84 SW12      29.97F WCI  30
DETROIT CITY   CLOUDY    40  31  70 W12       30.04S WCI  33
DETROIT        CLOUDY    40  32  73 SW12      30.06S WCI  33
FLINT          CLOUDY    39  33  79 W7        30.02S WCI  34
GROSSE ILE     CLOUDY    40  32  74 W8        30.05S WCI  34
HILLSDALE      CLOUDY    34  30  86 SW7       30.05R WCI  28
HOWELL         CLOUDY    38  33  82 SW8       30.02R WCI  32

CITY           SKY/WX    TMP DP  RH WIND       PRES   REMARKS
JACKSON        CLOUDY    37  32  82 SW8       30.04R WCI  31
LAMBERTVILLE   CLOUDY    39  32  75 SW6       30.08F WCI  35
LANSING        CLOUDY    37  32  82 SW8       30.02S WCI  31
LAPEER         NOT AVBL
MASON          CLOUDY    37  34  90 SW5       30.03S WCI  33
MONROE         CLOUDY    39  34  82 SW8       30.06F WCI  34
MT. CLEMENS    CLOUDY    41  31  69 W9        30.01S
PONTIAC        CLOUDY    37  32  82 W9        30.01R WCI  30
PORT HOPE        N/A     39  33  79 SW9       29.92F WCI  33
PORT HURON     CLOUDY    39  32  75 W6        30.01F WCI  35
TRI CITIES     PTSUNNY   38  33  82 SW14      29.98S WCI  30
MIDLAND        PTSUNNY   39  31  73 W10G17    29.96R WCI  32
TROY           CLOUDY    40  31  71 W8        30.05R WCI  34
SAGINAW HB     SUNNY     37  32  81 SW13      29.98S WCI  29
$$
MIZ043>046-050>051-056>058-064>065-071>073-077>080-051800-
SOUTHWEST LOWER MICHIGAN

CITY           SKY/WX    TMP DP  RH WIND       PRES   REMARKS
BATTLE CREEK   CLOUDY    36  33  89 SW13      30.04S WCI  27
BENTON HARBOR  CLOUDY    35  30  82 S9G17     30.05S HAZE    WCI  28
BIG RAPIDS     CLOUDY    39  30  70 W15       29.95S WCI  31
COLDWATER      CLOUDY    34  31  88 SW8       30.07R WCI  27
FREMONT        FAIR      38  28  66 SW7       29.98S WCI  33
HOLLAND        PTSUNNY   40  33  76 SW7       30.01F
GRAND RAPIDS   PTSUNNY   39  31  72 W10       30.01S WCI  32
IONIA          CLOUDY    37  33  85 SW8       30.00F WCI  31
KALAMAZOO      CLOUDY    35  30  82 S13       30.05R WCI  26
LUDINGTON      PTSUNNY   39  33  77 W6        29.96S WCI  35
MARSHALL       CLOUDY    36  32  87 SW9       30.04R WCI  29
MOUNT PLEASANT CLOUDY    38  32  80 W6        29.96S WCI  33
MUSKEGON       PTSUNNY   42  33  70 SW13      30.00S
SOUTH HAVEN    CLOUDY    39  35  85 S7        30.03S WCI  34
$$
MIZ016>042-051800-
NORTHERN LOWER MICHIGAN

CITY           SKY/WX    TMP DP  RH WIND       PRES   REMARKS
ALPENA         CLOUDY    38  32  79 SW7       29.89R WCI  33
BEAVER ISLAND  CLOUDY    39  32  76 W12G24    29.88R WCI  32
BELLAIRE       CLOUDY    40  32  73 W5        29.91S
CADILLAC       CLOUDY    36  31  82 W9        29.91S WCI  29
CHARLEVOIX     CLOUDY    41  31  68 W21G26    29.91S
FRANKFORT      CLOUDY    41  33  72 W8G16     29.94S
GAYLORD        PTSUNNY   37  30  75 W14G24    29.86S WCI  28
GRAYLING       MOSUNNY   38  32  79 W12G18    29.89F WCI  31
HARBOR SPRINGS CLOUDY    39  32  75 W12G23    29.87S WCI  32
HOUGHTON LAKE  MOSUNNY   38  30  73 W13       29.91S WCI  30
MANISTEE       CLOUDY    40  31  70 W9        29.95S WCI  34
OSCODA         MOSUNNY   37  34  89 W8        29.91F WCI  31
PELLSTON       CLOUDY    37  31  78 W6        29.87S WCI  32
ROGERS CITY    CLOUDY    35  33  93 SW5       29.88S FOG     WCI  31
TRAVERSE CITY  PTSUNNY   40  30  67 W13G20    29.92R WCI  32
$$
MIZ007>008-015-051800-
EASTERN UPPER MICHIGAN

CITY           SKY/WX    TMP DP  RH WIND       PRES   REMARKS
KINROSS        SUNNY     37  32  82 W12       29.83R WCI  29
MACKINAC ISLAN CLOUDY    38  31  77 W18G25    29.84S WCI  28
NEWBERRY       MOSUNNY   34  32  93 SW14G20   29.83S WCI  24
S. S. MARIE    CLOUDY    36  32  85 W8        29.82R WCI  30
MUNISING         N/A     37  32  82 SW7       29.84R WCI  32
$$
MIZ004>006-011>014-085-051800-
CENTRAL UPPER MICHIGAN

CITY           SKY/WX    TMP DP  RH WIND       PRES   REMARKS
MANISTIQUE     SUNNY     38  34  84 SW9G16    29.86R WCI  31
ESCANABA       MOSUNNY   37  31  78 W10       29.89R WCI  30
MENOMINEE      PTSUNNY   36  30  80 W6        29.91R WCI  31
SAWYER-GWINN   CLOUDY    34  28  80 W13G21    29.83  WCI  25
$$
MIZ001>003-009>011-084-051800-
WESTERN UPPER MICHIGAN

CITY           SKY/WX    TMP DP  RH WIND       PRES   REMARKS
IRON MOUNTAIN  SUNNY     36  27  69 VRB5      29.83S WCI  32
HOUGHTON       CLOUDY    36  29  75 W8        29.79R WCI  30
COPPER HARBOR    N/A     38  33  82 VRB7      29.79R WCI  33
IRONWOOD       SUNNY     35  28  75 SW5       29.81F WCI  31
$$

ABBREVIATIONS USED IN REMARKS
   TC - TEMPERATURE IN CELSIUS
  WCI - WIND CHILL INDEX
   HX - HEAT INDEX
  VSB - VISIBILITY





USA.gov is the U.S. government's official web portal to all federal, state and local government web resources and services.